Location: Erskine
(52.3216°N, 112.8806°W)
Time: 09:03:27
(UTC+00:00)

PRISM - Visible Passes

Search period start: 08 December 2023 00:00
Search period end: 18 December 2023 00:00
Orbit: 522 x 542 km, 98.2° (Epoch: 07 December)

Date Brightness Start Highest point End Pass type
(mag) Time Alt. Az. Time Alt. Az. Time Alt. Az.
12 Dec ? 14:51:49 10° NE 14:55:07 26° E 14:58:22 10° SSE visible
13 Dec ? 14:42:13 10° NE 14:45:12 21° E 14:48:09 10° SE visible
14 Dec ? 14:32:40 10° NE 14:35:15 17° E 14:37:49 10° SE visible
15 Dec ? 14:23:16 10° ENE 14:25:16 14° E 14:27:15 10° ESE visible
16 Dec ? 14:14:16 10° ENE 14:15:15 11° E 14:16:14 10° ESE visible
